This demonstration page uses our WeatherBlox Daily Observations layout. Learn more.

Left ArrowRight Arrow

41.12389, -100.76542

Hourly Observations for September 16, 2016

Temp ( °F °C ) Dew Point ( °F °C ) Humidity (%) Winds ( mph kmh ) Pressure ( in mb ) Visibility ( mi km ) Precip ( " mm )
12:53 am 00:53 Mostly Clear 55 12.8 50 10 83 83 W 8 13 29.96 1014 10 16 0.00 0.00
1:53 am 01:53 Clear 54 12.2 51 10.6 90 90 Calm 29.98 1015 10 16 0.00 0.00
2:53 am 02:53 Clear 54 12.2 50 10 87 87 Calm 29.98 1015 10 16 0.00 0.00
3:53 am 03:53 Clear 53 11.7 49 9.4 86 86 Calm 29.98 1015 10 16 0.00 0.00
4:53 am 04:53 Clear 49 9.4 47 8.3 93 93 NNW 6 9 30.00 1016 10 16 0.00 0.00
5:53 am 05:53 Clear 49 9.4 46 7.8 90 90 NW 8 13 30.01 1016 10 16 0.00 0.00
6:53 am 06:53 Clear 48 8.9 45 7.2 89 89 NW 8 13 30.01 1016 10 16 0.00 0.00
7:53 am 07:53 Sunny 46 7.8 43 6.1 89 89 NNW 5 7 30.05 1018 10 16 0.00 0.00
8:53 am 08:53 Sunny 54 12.2 48 8.9 80 80 WNW 9 15 30.05 1018 10 16 0.00 0.00
9:53 am 09:53 Sunny 60 15.6 48 8.9 65 65 WNW 10 17 30.05 1018 10 16 0.00 0.00
10:53 am 10:53 Sunny 65 18.3 49 9.4 56 56 WNW 13 20 30.04 1017 10 16 0.00 0.00
11:53 am 11:53 Sunny 72 22.2 47 8.3 41 41 WNW 18 30 30.02 1017 10 16 0.00 0.00
12:53 pm 12:53 Sunny 75 23.9 48 8.9 39 39 NW 16 26 30.00 1016 10 16 0.00 0.00
1:53 pm 13:53 Sunny 76 24.4 46 7.8 35 35 WNW 21 33 29.98 1015 10 16 0.00 0.00
2:53 pm 14:53 Sunny 78 25.6 46 7.8 32 32 WNW 20 31 29.96 1015 10 16 0.00 0.00
3:53 pm 15:53 Sunny 78 25.6 45 7.2 31 31 NW 15 24 29.96 1014 10 16 0.00 0.00
4:53 pm 16:53 Sunny 77 25 45 7.2 32 32 NW 14 22 29.96 1015 10 16 0.00 0.00
5:53 pm 17:53 Partly Cloudy 77 25 45 7.2 32 32 NW 14 22 29.96 1015 10 16 0.00 0.00
6:53 pm 18:53 Sunny 73 22.8 46 7.8 38 38 NW 8 13 29.97 1015 10 16 0.00 0.00
7:53 pm 19:53 Clear 62 16.7 45 7.2 54 54 NW 6 9 30.01 1016 10 16 0.00 0.00
8:53 pm 20:53 Clear 58 14.4 44 6.7 60 60 NW 5 7 30.03 1017 10 16 0.00 0.00
9:53 pm 21:53 Clear 57 13.9 43 6.1 60 60 WNW 6 9 30.04 1017 10 16 0.00 0.00
10:53 pm 22:53 Clear 54 12.2 43 6.1 67 67 E 3 6 30.04 1017 10 16 0.00 0.00
11:53 pm 23:53 Clear 54 12.2 45 7.2 72 72 Calm 30.04 1017 10 16 0.00 0.00

Powered by AerisWeather